This is the latest recevied weather packets stored in our database for station/object PA2JOK. If no packets are shown the sender has not sent any weather packets the latest 10 day(s).
| Time | Temp. | Humidity | Pressure | Rain* | Wind** | Luminosity | Snow |
|---|---|---|---|---|---|---|---|
| 1777780082 | 13.33° C | 90% | 1009.5 hPa | 0 mm | - | - | - |
| 1777779182 | 13.33° C | 90% | 1009.5 hPa | 0 mm | - | - | - |
| 1777778282 | 13.89° C | 90% | 1010 hPa | 0 mm | - | - | - |
| 1777777382 | 13.89° C | 90% | 1010.2 hPa | 0 mm | - | - | - |
| 1777776482 | 13.89° C | 90% | 1010.3 hPa | 0 mm | - | - | - |
| 1777775583 | 13.89° C | 90% | 1010.3 hPa | 0 mm | - | - | - |
| 1777774682 | 13.89° C | 90% | 1010.5 hPa | 0 mm | - | - | - |
| 1777773782 | 13.89° C | 90% | 1010.2 hPa | 0 mm | - | - | - |
| 1777772882 | 13.33° C | 90% | 1010.3 hPa | 0 mm | - | - | - |
| 1777771983 | 13.33° C | 90% | 1010.3 hPa | 0 mm | - | - | - |
| 1777771084 | 13.33° C | 90% | 1010.3 hPa | 0 mm | - | - | - |
| 1777770183 | 13.89° C | 90% | 1010.4 hPa | 0 mm | - | - | - |
| 1777769283 | 13.89° C | 90% | 1010.4 hPa | 0.25 mm | - | - | - |
| 1777768383 | 13.33° C | 90% | 1010.4 hPa | 0.25 mm | - | - | - |
| 1777767483 | 13.33° C | 90% | 1010.4 hPa | 0.25 mm | - | - | - |
| 1777766583 | 13.33° C | 89% | 1010.6 hPa | 0.25 mm | - | - | - |
| 1777765682 | 13.33° C | 89% | 1011.1 hPa | 0 mm | - | - | - |
| 1777764782 | 13.33° C | 89% | 1011.1 hPa | 0 mm | - | - | - |
| 1777763883 | 13.33° C | 89% | 1011.2 hPa | 0 mm | - | - | - |
| 1777762983 | 13.89° C | 88% | 1011.3 hPa | 0 mm | - | - | - |
| 1777762083 | 13.89° C | 87% | 1011.6 hPa | 0.51 mm | - | - | - |
| 1777761182 | 13.33° C | 88% | 1011.5 hPa | 1.52 mm | - | - | - |
| 1777760283 | 13.33° C | 87% | 1011.6 hPa | 2.54 mm | - | - | - |
| 1777759383 | 13.89° C | 86% | 1011.6 hPa | 6.1 mm | - | - | - |
| 1777758483 | 13.89° C | 84% | 1012 hPa | 5.59 mm | - | - | - |
* Rain latest hour (hover to see other rain measurements)
** Current wind speed in m/s (hover to see current wind gust speed)